Погода в Свободном

Россия / Республика Мордовия     53°52′45″N   86°33′34″E
темп.,
°C
ветер,
м/с
пор.,
м/с
влажн.,
%
обл.,
%
осадки,
мм/ч
давл.,
гПа
погр.,
м
20 мая, пт
пт2000:00+12зюз49895 0.0 1014215
03:00+13юз411795 0.0 1015397
06:00+18юз4113917 0.0 10162267
09:00+20зюз68325 0.0 10152600
12:00+21юз57305 0.0 10142780
15:00+19юз3640100 0.0 1013342
18:00+14ююз3754100 0.0 1014110
21:00+12юз235997 0.0 101543
21 мая, сб
сб2100:00+11ююз496195 0.0 1014145
03:00+13юз51357100 0.0 1015393
06:00+18юз5844100 0.0 1015732
09:00+22зюз58386 0.0 10141872
12:00+23з453768 0.0 10122047
15:00+22зюз22455 0.0 10111054
18:00+16ю11625 0.0 101111
21:00+15в226413 0.0 100911
22 мая, вс
вс2200:00+13всв226989 0.0 100724
03:00+15всв2865100 0.0 1005178
06:00+21в4744100 0.0 1003411
09:00+25вюв4535100 0.0 10021010
12:00+26юз2235100 0.0 10021257
15:00+22з5105599 0.0 1003405
18:00+18юз226196 0.0 100516
21:00+18зюз3960100 0.0 1007203
23 мая, пн
пн2300:00+15з61385100 0.0 1011452
03:00+14зсз51172100 0.4 1016649
06:00+14з3553100 0.1 1020812
09:00+14зюз3438100 0.1 10221068
12:00+15юз2338100 0.0 10231032
15:00+15ююв21400 0.0 1022908
18:00+9юв22770 0.0 102322
21:00+7вюв11830 0.0 102211
24 мая, вт
вт2400:00+7св22880 0.0 102125
03:00+10ссв24710 0.0 1020146
06:00+16св234335 0.0 1018460
09:00+20ссв3438100 0.0 1016892
12:00+22с4433100 0.0 10151061
15:00+20с364089 0.0 1015454
18:00+15ссз3650100 0.0 101593
21:00+13ссз3560100 0.0 101488